Location: Johnson City
(36.3130°N, 82.3540°W)
Time: 07:44:04
(UTC-04:00)

Amateur Radio Satellites - All Passes

Search period start: 26 April 2017 07:14
Search period end: 27 April 2017 07:14
Location: Johnson City, 36.3130°N, 82.3540°W

Satellite Date Start Highest point End Downlink Frequencies (MHz)
Time Altitude Azimuth
RS-15 26 Apr 07:14:15 07:25:03 42° 107° (ESE) 07:36:11 29.354- 29.394
M-CUBED/EXP-1 PRIME 26 Apr 07:20:42 07:24:51 35° 67° (ENE) 07:29:06 437.505
DOVE 4 26 Apr 07:32:22 07:36:59 78° 284° (WNW) 07:41:18 437.250
XW-2F 26 Apr 07:35:42 07:39:30 73° 102° (ESE) 07:43:17 145.980 - 146.000
SO-50 26 Apr 07:47:33 07:52:02 50° 303° (WNW) 07:56:29 436.795
NUDT-PHONESAT 26 Apr 07:49:19 07:53:02 89° 106° (ESE) 07:56:46 437.300
STRAND 1 26 Apr 07:55:23 08:00:25 65° 74° (ENE) 08:05:28 437.568
XW-2A 26 Apr 08:10:24 08:12:48 18° 95° (E) 08:15:12 145.665 - 145.685
XW-2D 26 Apr 08:25:34 08:28:36 23° 289° (WNW) 08:31:39 145.860 - 145.880
Tancredo 1 26 Apr 08:27:43 08:30:34 35° 134° (SE) 08:33:26 437.200
XW-2B 26 Apr 08:32:41 08:35:29 20° 290° (WNW) 08:38:18 145.730 - 145.750
CUTE-I 26 Apr 08:35:10 08:40:03 38° 290° (WNW) 08:44:55 437.470
CUBEBUG 2 26 Apr 08:35:50 08:38:44 18° 94° (E) 08:41:39 437.445
HO-68 26 Apr 08:43:19 08:50:22 55° 101° (ESE) 08:57:23 435.675
LilacSat-2 26 Apr 08:43:31 08:45:39 14° 292° (WNW) 08:47:47 437.200
ISS 26 Apr 08:43:58 08:47:03 41° 134° (SE) 08:50:09 437.550
KAITUO 1B 26 Apr 08:43:59 08:46:34 18° 290° (WNW) 08:49:10 145.475/437.950
XW-2C 26 Apr 08:45:12 08:47:17 14° 292° (WNW) 08:49:21 145.795 - 145.815
M-CUBED/EXP-1 PRIME 26 Apr 08:55:47 08:59:16 22° 261° (W) 09:02:51 437.505
AAUSAT CUBESAT 2 26 Apr 09:07:45 09:11:26 29° 96° (E) 09:15:06 437.432
CUTE 1.7 + AOD 2 26 Apr 09:11:53 09:16:09 67° 284° (WNW) 09:20:24 437.475
ZACube-1 26 Apr 09:20:40 09:23:50 20° 95° (E) 09:27:01 437.345
FO-29 26 Apr 09:24:44 09:26:43 12° 62° (ENE) 09:28:38 435.910
RS-15 26 Apr 09:25:22 09:37:08 57° 307° (NW) 09:49:18 29.354- 29.394
AO-73 26 Apr 09:27:46 09:31:05 22° 96° (E) 09:34:26 145.935
SEEDS 26 Apr 09:33:06 09:37:17 59° 285° (WNW) 09:41:28 437.485
STRAND 1 26 Apr 09:37:54 09:39:59 12° 269° (W) 09:42:04 437.568
XW-2A 26 Apr 09:43:03 09:45:26 18° 289° (WNW) 09:47:49 145.665 - 145.685
Oscar 11 26 Apr 09:43:51 09:47:37 28° 96° (E) 09:51:22 .
UWE-3 26 Apr 09:59:16 10:03:27 74° 283° (WNW) 10:07:42 435.000/436.395/437.385
Tancredo 1 26 Apr 10:04:10 10:06:34 20° 329° (NNW) 10:08:58 437.200
PRISM 26 Apr 10:04:10 10:08:05 43° 73° (ENE) 10:12:02 437.425
TIGRISAT 26 Apr 10:06:26 10:10:01 25° 70° (ENE) 10:13:33 435.000
CUBEBUG 2 26 Apr 10:11:44 10:15:23 30° 288° (WNW) 10:19:04 437.445
ISS 26 Apr 10:21:10 10:23:39 20° 330° (NNW) 10:26:08 437.550
UNISAT 6 26 Apr 10:26:46 10:30:58 47° 74° (ENE) 10:35:08 437.425
HO-68 26 Apr 10:31:53 10:37:37 27° 298° (WNW) 10:43:21 435.675
O/OREOS (USA 219) 26 Apr 10:38:01 10:42:10 35° 104° (ESE) 10:46:22 437.305
AAUSAT CUBESAT 2 26 Apr 10:43:39 10:46:40 19° 291° (WNW) 10:49:40 437.432
OBJECT BX 26 Apr 10:46:18 10:49:30 28° 97° (E) 10:52:41 145.990 - 145.960
ZACube-1 26 Apr 10:56:27 11:00:05 28° 288° (WNW) 11:03:45 437.345
AO-73 26 Apr 11:03:44 11:07:15 26° 289° (WNW) 11:10:49 145.935
FO-29 26 Apr 11:04:37 11:11:10 89° 76° (ENE) 11:16:58 435.910
AIST 2D 26 Apr 11:13:50 11:15:50 15° 69° (ENE) 11:17:50 435.315
Oscar 11 26 Apr 11:20:14 11:23:33 22° 291° (WNW) 11:26:52 .
DELFI C3 26 Apr 11:31:25 11:35:18 50° 285° (WNW) 11:39:09 145.870
PRISM 26 Apr 11:41:40 11:43:32 13° 267° (W) 11:45:26 437.425
EO-79 26 Apr 11:42:38 11:45:52 22° 69° (ENE) 11:49:06 145.935-145.965
TIGRISAT 26 Apr 11:43:00 11:46:36 24° 264° (W) 11:50:08 435.000
RS-15 26 Apr 11:44:53 11:53:19 20° 337° (NNW) 12:01:49 29.354- 29.394
DUCHIFAT 1 26 Apr 11:45:32 11:48:30 19° 68° (ENE) 11:51:27 145.980
LO-87 26 Apr 11:52:03 11:54:54 22° 96° (E) 11:57:43 145.935 - 145.965
PCSat 26 Apr 12:05:40 12:10:44 38° 57° (ENE) 12:15:45 145.827
UNISAT 6 26 Apr 12:05:53 12:07:53 13° 267° (W) 12:09:53 437.425
O/OREOS (USA 219) 26 Apr 12:18:16 12:21:39 20° 300° (WNW) 12:25:05 437.305
POLYITAN 1 26 Apr 12:20:41 12:24:50 62° 75° (ENE) 12:28:59 437.675
OBJECT BX 26 Apr 12:20:45 12:22:55 15° 291° (WNW) 12:25:06 145.990 - 145.960
QB50P2 26 Apr 12:27:11 12:31:24 82° 79° (E) 12:35:39 145.880/145.840
ESTCUBE 1 26 Apr 12:38:26 12:42:50 47° 99° (E) 12:47:12 437.505/2401.250
AIST 2D 26 Apr 12:45:54 12:48:49 25° 264° (W) 12:51:44 435.315
BUGSAT 1 26 Apr 12:48:22 12:52:01 31° 71° (ENE) 12:55:39 437.445
NANOSAT C BR1 26 Apr 12:49:38 12:53:48 63° 259° (W) 12:57:59 145.865
VELOX 1 26 Apr 12:54:33 12:57:34 18° 94° (E) 13:00:33 145.980
FO-29 26 Apr 12:55:18 12:56:37 11° 268° (W) 12:57:55 435.910
EO-79 26 Apr 13:17:54 13:21:28 26° 263° (W) 13:25:02 145.935-145.965
DUCHIFAT 1 26 Apr 13:20:14 13:23:56 30° 263° (W) 13:27:38 145.980
LO-87 26 Apr 13:25:45 13:28:10 17° 290° (WNW) 13:30:33 145.935 - 145.965
AO-85 26 Apr 13:27:30 13:31:52 87° 291° (WNW) 13:35:59 145.980
DX 1 26 Apr 13:47:12 13:50:50 25° 96° (E) 13:54:25 434.975-435.025
PCSat 26 Apr 13:49:29 13:53:53 26° 253° (WSW) 13:58:16 145.827
SPROUT 26 Apr 13:59:06 14:03:21 81° 283° (WNW) 14:07:34 437.525
50 SAT 26 Apr 14:01:24 14:04:51 66° 100° (E) 14:08:17 437.505
Gurwin Techsat 1B 26 Apr 14:02:30 14:07:24 39° 70° (ENE) 14:12:19 435.225
Oscar 19 26 Apr 14:03:34 14:08:41 71° 75° (ENE) 14:13:51 437.125/150
RS-15 26 Apr 14:05:32 14:12:56 17° 14° (NNE) 14:20:12 29.354- 29.394
AO-7 26 Apr 14:12:13 14:16:33 15° 52° (NE) 14:20:54 .
BEESAT 2 26 Apr 14:12:43 14:15:07 16° 109° (ESE) 14:17:33 435.950
BEESAT 3 26 Apr 14:13:06 14:16:51 47° 115° (ESE) 14:20:41 437.485
ESTCUBE 1 26 Apr 14:16:38 14:19:11 15° 294° (WNW) 14:21:44 437.505/2401.250
BUGSAT 1 26 Apr 14:24:33 14:27:23 18° 265° (W) 14:30:13 437.445
VELOX 1 26 Apr 14:30:04 14:34:04 35° 289° (WNW) 14:38:04 145.980
UKube-1 26 Apr 14:50:24 14:54:43 84° 283° (WNW) 14:59:00 .
Tancredo 1 26 Apr 14:55:42 14:57:51 17° 29° (NNE) 15:00:00 437.200
YUBILEINY 26 Apr 15:11:05 15:17:47 24° 69° (ENE) 15:24:27 435.215
ISS 26 Apr 15:14:11 15:16:41 20° 30° (NNE) 15:19:11 437.550
DX 1 26 Apr 15:23:22 15:26:53 24° 291° (WNW) 15:30:22 434.975-435.025
ITAMSAT 1 26 Apr 15:29:03 15:33:50 39° 70° (ENE) 15:38:38 435.822/435.867
BEESAT 26 Apr 15:36:17 15:39:57 22° 95° (E) 15:43:37 436.000
Gurwin Techsat 1B 26 Apr 15:43:19 15:47:24 23° 265° (W) 15:51:32 435.225
Oscar 19 26 Apr 15:46:50 15:48:28 11° 269° (W) 15:50:05 437.125/150
BEESAT 2 26 Apr 15:48:52 15:52:32 36° 305° (NW) 15:56:16 435.950
BEESAT 3 26 Apr 15:52:27 15:54:41 15° 312° (NW) 15:56:58 437.485
AO-7 26 Apr 15:59:43 16:07:58 77° 70° (ENE) 16:16:15 .
ITUPSAT 1 26 Apr 16:15:53 16:20:36 58° 101° (E) 16:25:18 437.325
RS-15 26 Apr 16:18:41 16:30:11 43° 46° (NE) 16:41:07 29.354- 29.394
SO-50 26 Apr 16:21:04 16:25:33 68° 59° (ENE) 16:30:01 436.795
Tancredo 1 26 Apr 16:30:57 16:33:56 47° 225° (SW) 16:36:55 437.200
ISS 26 Apr 16:50:12 16:53:16 40° 226° (SW) 16:56:20 437.550
YUBILEINY 26 Apr 17:06:34 17:15:14 68° 268° (W) 17:23:55 435.215
MOZHAYETS 4 26 Apr 17:08:32 17:13:09 75° 285° (WNW) 17:17:45
ITAMSAT 1 26 Apr 17:09:26 17:13:23 22° 265° (W) 17:17:20 435.822/435.867
BEESAT 26 Apr 17:13:29 17:17:44 33° 290° (WNW) 17:22:00 436.000
KKS-1 26 Apr 17:23:06 17:26:40 24° 96° (E) 17:30:13 437.445
LilacSat-2 26 Apr 17:49:28 17:50:54 12° 67° (ENE) 17:52:20 437.200
XW-2C 26 Apr 17:50:44 17:52:03 12° 67° (ENE) 17:53:23 145.795 - 145.815
STARS 26 Apr 17:55:30 17:58:56 22° 96° (E) 18:02:21 437.465
ITUPSAT 1 26 Apr 17:55:32 17:57:54 14° 296° (WNW) 18:00:16 437.325
AO-7 26 Apr 17:55:45 18:01:23 20° 266° (W) 18:07:04 .
CUBESAT XI-V 26 Apr 17:58:54 18:03:34 62° 100° (E) 18:08:13 437.345
SO-50 26 Apr 18:04:47 18:05:23 10° 253° (WSW) 18:06:00 436.795
XW-2F 26 Apr 18:14:36 18:17:31 22° 71° (ENE) 18:20:27 145.980 - 146.000
CUTE-I 26 Apr 18:14:57 18:19:33 30° 68° (ENE) 18:24:09 437.470
JUGNU 26 Apr 18:19:30 18:22:12 13° 171° (S) 18:24:54 437.505
NUDT-PHONESAT 26 Apr 18:26:27 18:29:28 25° 72° (ENE) 18:32:31 437.300
RS-15 26 Apr 18:31:20 18:43:04 59° 249° (WSW) 18:54:14 29.354- 29.394
DOVE 4 26 Apr 18:33:37 18:38:55 78° 76° (ENE) 18:44:10 437.250
KKS-1 26 Apr 18:59:27 19:03:09 27° 291° (WNW) 19:06:51 437.445
XW-2D 26 Apr 19:03:15 19:06:58 72° 259° (WSW) 19:10:43 145.860 - 145.880
HO-68 26 Apr 19:09:40 19:15:45 32° 64° (ENE) 19:21:53 435.675
XW-2B 26 Apr 19:10:14 19:13:54 59° 259° (W) 19:17:37 145.730 - 145.750
KAITUO 1B 26 Apr 19:20:11 19:23:46 55° 260° (W) 19:27:25 145.475/437.950
LilacSat-2 26 Apr 19:21:16 19:24:47 39° 262° (W) 19:28:20 437.200
XW-2C 26 Apr 19:22:21 19:25:51 39° 262° (W) 19:29:23 145.795 - 145.815
STARS 26 Apr 19:31:32 19:35:13 27° 290° (WNW) 19:38:52 437.465
CUBEBUG 2 26 Apr 19:32:52 19:34:35 12° 66° (ENE) 19:36:16 437.445
CUBESAT XI-V 26 Apr 19:38:24 19:40:22 13° 296° (WNW) 19:42:20 437.345
XW-2F 26 Apr 19:48:51 19:51:34 19° 265° (W) 19:54:17 145.980 - 146.000
CUTE-I 26 Apr 19:54:50 19:59:29 30° 263° (W) 20:04:09 437.470
AAUSAT CUBESAT 2 26 Apr 19:56:29 19:58:45 14° 67° (ENE) 20:01:02 437.432
NUDT-PHONESAT 26 Apr 20:00:59 20:03:21 16° 266° (W) 20:05:45 437.300
CUTE 1.7 + AOD 2 26 Apr 20:01:31 20:05:38 58° 75° (ENE) 20:09:48 437.475
NO-84 26 Apr 20:04:14 20:08:03 80° 133° (SE) 20:11:32 435.350 FM
JUGNU 26 Apr 20:07:02 20:10:24 16° 182° (S) 20:13:48 437.505
STRAND 1 26 Apr 20:08:58 20:13:15 27° 96° (E) 20:17:31 437.568
XW-2A 26 Apr 20:10:39 20:14:01 87° 78° (ENE) 20:17:22 145.665 - 145.685
DOVE 4 26 Apr 20:15:34 20:17:01 11° 270° (W) 20:18:29 437.250
ZACube-1 26 Apr 20:15:45 20:17:15 12° 66° (ENE) 20:18:46 437.345
SEEDS 26 Apr 20:21:39 20:25:47 64° 76° (ENE) 20:29:57 437.485
AO-73 26 Apr 20:22:20 20:24:08 13° 67° (ENE) 20:25:57 145.935
M-CUBED/EXP-1 PRIME 26 Apr 20:36:38 20:40:22 33° 101° (ESE) 20:43:49 437.505
Oscar 11 26 Apr 20:37:00 20:39:40 16° 67° (ENE) 20:42:22 .
O/OREOS (USA 219) 26 Apr 20:50:20 20:54:43 44° 66° (ENE) 20:59:03 437.305
UWE-3 26 Apr 20:53:21 20:57:35 61° 76° (ENE) 21:01:44 435.000/436.395/437.385
HO-68 26 Apr 20:56:26 21:03:11 45° 260° (W) 21:10:01 435.675
CUBEBUG 2 26 Apr 21:06:27 21:10:45 52° 260° (W) 21:14:56 437.445
SRMSAT 26 Apr 21:29:42 21:32:56 15° 174° (S) 21:36:11 437.500
AAUSAT CUBESAT 2 26 Apr 21:29:57 21:33:50 40° 262° (W) 21:37:45 437.432
NO-84 26 Apr 21:44:18 21:45:54 13° 327° (NNW) 21:47:27 435.350 FM
STRAND 1 26 Apr 21:47:55 21:52:22 31° 291° (WNW) 21:56:48 437.568
ZACube-1 26 Apr 21:49:00 21:53:05 50° 260° (W) 21:57:08 437.345
AO-73 26 Apr 21:55:55 21:59:57 46° 261° (W) 22:03:58 145.935
JUGNU 26 Apr 21:56:43 21:58:37 11° 192° (SSW) 22:00:31 437.505
AO-85 26 Apr 22:01:01 22:04:41 33° 56° (NE) 22:08:28 145.980
Oscar 11 26 Apr 22:11:30 22:15:28 37° 262° (W) 22:19:29 .
M-CUBED/EXP-1 PRIME 26 Apr 22:11:47 22:14:28 17° 299° (WNW) 22:17:02 437.505
DELFI C3 26 Apr 22:13:41 22:17:35 59° 75° (ENE) 22:21:31 145.870
UNISAT 6 26 Apr 22:23:00 22:24:22 11° 92° (E) 22:25:44 437.425
O/OREOS (USA 219) 26 Apr 22:31:08 22:33:40 15° 261° (W) 22:36:11 437.305
BEESAT 3 26 Apr 22:33:17 22:35:31 14° 48° (NE) 22:37:44 437.485
OBJECT BX 26 Apr 22:54:27 22:57:58 50° 260° (W) 23:01:31 145.990 - 145.960
SRMSAT 26 Apr 23:18:01 23:21:20 15° 185° (S) 23:24:38 437.500
PRISM 26 Apr 23:22:51 23:27:00 78° 284° (WNW) 23:31:06 437.425
ESTCUBE 1 26 Apr 23:35:26 23:39:24 31° 71° (ENE) 23:43:23 437.505/2401.250
TIGRISAT 26 Apr 23:35:46 23:40:04 80° 104° (ESE) 23:44:24 435.000
AO-85 26 Apr 23:42:04 23:44:49 18° 249° (WSW) 23:47:40 145.980
VELOX 1 26 Apr 23:50:30 23:52:23 13° 65° (ENE) 23:54:17 145.980
UNISAT 6 26 Apr 23:57:09 00:01:19 51° 286° (WNW) 00:05:32 437.425
LO-87 26 Apr 23:57:49 00:01:26 67° 259° (W) 00:05:03 145.935 - 145.965
FO-29 27 Apr 00:00:58 00:06:13 83° 285° (WNW) 00:11:51 435.910
BEESAT 2 27 Apr 00:08:29 00:12:28 53° 58° (ENE) 00:16:24 435.950
BEESAT 3 27 Apr 00:09:30 00:13:23 49° 244° (WSW) 00:17:12 437.485
POLYITAN 1 27 Apr 00:10:02 00:11:39 12° 92° (E) 00:13:16 437.675
AIST 2D 27 Apr 00:13:11 00:16:07 24° 96° (E) 00:19:03 435.315
QB50P2 27 Apr 00:15:48 00:18:22 16° 94° (E) 00:20:57 145.880/145.840
50 SAT 27 Apr 00:32:37 00:34:48 16° 69° (ENE) 00:37:01 437.505
NANOSAT C BR1 27 Apr 00:36:55 00:40:17 23° 96° (E) 00:43:38 145.865
DX 1 27 Apr 00:40:53 00:43:43 17° 66° (ENE) 00:46:32 434.975-435.025
SPROUT 27 Apr 00:49:29 00:53:38 52° 74° (ENE) 00:57:47 437.525
EO-79 27 Apr 01:04:13 01:08:20 56° 100° (E) 01:12:27 145.935-145.965
DUCHIFAT 1 27 Apr 01:06:06 01:10:08 47° 100° (E) 01:14:09 145.980
ESTCUBE 1 27 Apr 01:12:50 01:16:12 21° 265° (W) 01:19:35 437.505/2401.250
VELOX 1 27 Apr 01:23:57 01:28:19 55° 259° (W) 01:32:43 145.980
UKube-1 27 Apr 01:41:53 01:46:07 57° 74° (ENE) 01:50:22 .
POLYITAN 1 27 Apr 01:43:37 01:47:39 46° 286° (WNW) 01:51:39 437.675
AIST 2D 27 Apr 01:46:56 01:49:06 16° 290° (WNW) 01:51:17 435.315
BEESAT 2 27 Apr 01:48:38 01:49:43 11° 253° (WSW) 01:50:48 435.950
QB50P2 27 Apr 01:50:25 01:54:15 35° 288° (WNW) 01:58:05 145.880/145.840
50 SAT 27 Apr 02:04:41 02:07:31 23° 263° (W) 02:10:24 437.505
BUGSAT 1 27 Apr 02:07:10 02:11:10 77° 101° (E) 02:15:10 437.445
NANOSAT C BR1 27 Apr 02:12:31 02:15:54 24° 290° (WNW) 02:19:15 145.865
DX 1 27 Apr 02:15:29 02:19:33 38° 261° (W) 02:23:40 434.975-435.025
Oscar 19 27 Apr 02:18:08 02:22:43 30° 97° (E) 02:27:14 437.125/150
Gurwin Techsat 1B 27 Apr 02:22:05 02:25:47 19° 94° (E) 02:29:28 435.225
SPROUT 27 Apr 02:28:34 02:29:47 11° 268° (W) 02:31:01 437.525
BEESAT 27 Apr 02:40:34 02:43:57 20° 66° (ENE) 02:47:20 436.000
NO-84 27 Apr 02:41:51 02:43:13 13° 33° (NNE) 02:44:34 435.350 FM
EO-79 27 Apr 02:42:29 02:43:35 11° 295° (WNW) 02:44:40 145.935-145.965
DUCHIFAT 1 27 Apr 02:43:33 02:45:21 13° 294° (WNW) 02:47:10 145.980
PCSat 27 Apr 02:44:16 02:49:34 60° 113° (ESE) 02:54:55 145.827
ITUPSAT 1 27 Apr 03:19:56 03:24:30 50° 73° (ENE) 03:29:06 437.325
UKube-1 27 Apr 03:21:42 03:22:27 10° 268° (W) 03:23:12 .
ITAMSAT 1 27 Apr 03:45:31 03:48:46 17° 93° (E) 03:51:59 435.822/435.867
Oscar 19 27 Apr 03:57:30 04:01:54 29° 292° (WNW) 04:06:17 437.125/150
Gurwin Techsat 1B 27 Apr 04:00:51 04:05:55 46° 288° (WNW) 04:10:58 435.225
AO-7 27 Apr 04:05:01 04:11:59 29° 97° (E) 04:18:54 .
MOZHAYETS 4 27 Apr 04:07:28 04:11:59 76° 76° (ENE) 04:16:33
YUBILEINY 27 Apr 04:09:11 04:16:15 29° 84° (E) 04:23:19 435.215
BEESAT 27 Apr 04:17:00 04:21:25 38° 261° (W) 04:25:50 436.000
NO-84 27 Apr 04:18:11 04:20:55 41° 230° (SW) 04:23:36 435.350 FM
KKS-1 27 Apr 04:19:16 04:22:10 17° 66° (ENE) 04:25:03 437.445
PCSat 27 Apr 04:29:34 04:33:21 19° 310° (NW) 04:37:11 145.827
STARS 27 Apr 04:50:22 04:52:59 16° 66° (ENE) 04:55:37 437.465
CUBESAT XI-V 27 Apr 04:59:25 05:03:48 43° 73° (ENE) 05:08:13 437.345
ITUPSAT 1 27 Apr 05:00:01 05:02:34 14° 267° (W) 05:05:08 437.325
ITAMSAT 1 27 Apr 05:23:28 05:28:28 51° 288° (WNW) 05:33:27 435.822/435.867
KKS-1 27 Apr 05:54:11 05:58:22 39° 261° (W) 06:02:35 437.445
AO-7 27 Apr 05:56:57 06:05:01 57° 293° (WNW) 06:13:05 .
YUBILEINY 27 Apr 06:04:04 06:12:29 54° 281° (WNW) 06:20:58 435.215
STARS 27 Apr 06:24:46 06:28:57 42° 261° (W) 06:33:09 437.465
SO-50 27 Apr 06:32:42 06:37:02 40° 114° (ESE) 06:41:18 436.795
CUTE-I 27 Apr 06:35:48 06:38:30 14° 92° (E) 06:41:13 437.470
DOVE 4 27 Apr 06:36:33 06:40:10 23° 94° (E) 06:43:37 437.250
CUBESAT XI-V 27 Apr 06:38:33 06:41:21 16° 268° (W) 06:44:09 437.345
XW-2D 27 Apr 06:39:37 06:41:39 14° 93° (E) 06:43:39 145.860 - 145.880
RS-15 27 Apr 06:39:38 06:49:27 31° 103° (ESE) 06:59:29 29.354- 29.394
XW-2B 27 Apr 06:46:12 06:48:38 16° 94° (E) 06:51:05 145.730 - 145.750
KAITUO 1B 27 Apr 06:54:45 06:57:11 16° 94° (E) 06:59:36 145.475/437.950
LilacSat-2 27 Apr 06:57:04 07:00:14 24° 96° (E) 07:03:23 437.200
XW-2C 27 Apr 06:57:35 07:00:39 23° 96° (E) 07:03:44 145.795 - 145.815
